Location: Peebles
(55.6412°N, 3.1714°W)
Time: 16:33:24
(UTC+01:00)

OBJECT B - Visible Passes

Search period start: 28 June 2022 00:00
Search period end: 08 July 2022 00:00
Orbit: 513 x 534 km, 97.5° (Epoch: 28 June)

Date Brightness Start Highest point End Pass type
(mag) Time Alt. Az. Time Alt. Az. Time Alt. Az.
28 Jun ? 00:17:06 10° SW 00:19:53 19° W 00:22:40 10° NW visible
29 Jun ? 00:04:10 10° SSW 00:07:19 24° W 00:10:30 10° NW visible
29 Jun ? 23:51:21 10° SSW 23:54:47 31° W 23:58:13 10° NNW visible
30 Jun ? 23:38:38 10° S 23:42:14 41° W 23:45:52 10° NNW visible
01 Jul ? 23:25:59 10° S 23:29:42 54° W 23:33:27 10° NNW visible
02 Jul ? 23:13:23 10° S 23:17:10 73° WSW 23:20:59 10° NNW visible
03 Jul ? 23:00:52 10° SSE 23:04:40 85° ENE 23:08:28 10° NNW visible
04 Jul ? 00:37:39 10° WSW 00:39:26 13° W 00:41:12 10° WNW visible
05 Jul ? 00:24:17 10° SW 00:26:45 17° W 00:29:14 10° NW visible
06 Jul ? 00:11:09 10° SW 00:14:06 21° W 00:17:02 10° NW visible
06 Jul ? 23:58:10 10° SSW 00:01:26 27° W 00:04:42 10° NW visible
07 Jul ? 23:45:17 10° SSW 23:48:46 35° W 23:52:17 10° NNW visible
